[[{"header":{"parameterUnit":"m.s-1","parameterCategory":1,"la1":30.2991,"la2":30.254,"lo1":-89.0895,"lo2":-89.0444,"dy":0.0017,"dx":0.0017,"nx":28,"ny":28,"refTime":"2024-02-16T09:00:00:Z","depth":0,"parameterNumber":2,"parameterNumberName":"U-component_of_WINDS"},"data":[0,0,0,0,0,0,0,0,0,0,0,0,0,0,0,0,0,0,0,0,0,0,0,0,0,0,0,0,0,0,0,0,0,0,0,0,0,0,0,0,0,0,0,0,0,0,0,0,0,0,0,0,0,0,0,0,0,0,-1.7134,-1.7135,0,-1.719,-1.7191,-1.7192,-1.7139,-1.7137,-1.7134,-1.7132,-1.7191,-1.7194,-1.7198,0,0,0,0,0,0,0,0,0,0,0,0,0,-1.6981,-1.6984,-1.7134,-1.7135,-1.7135,-1.719,-1.7191,-1.7192,-1.7139,-1.7136,-1.7134,-1.7131,-1.719,-1.7194,-1.7198,0,0,0,0,0,0,0,0,0,0,0,0,0,-1.7044,-1.6985,-1.7134,-1.7116,-1.7115,-1.719,-1.7191,-1.7192,-1.714,-1.7136,-1.7133,-1.713,-1.7188,-1.7194,-1.7199,-1.7295,0,0,-1.7215,-1.7217,0,0,0,0,0,0,0,0,-1.704,-1.7049,-1.7118,-1.7117,-1.7116,-1.7154,-1.7158,-1.7227,-1.714,-1.713,-1.7132,-1.7129,-1.7181,-1.7187,-1.7205,-1.7298,-1.7301,-1.7216,-1.7219,-1.7221,-1.7223,0,0,0,0,0,0,0,-1.7036,-1.7047,-1.7156,-1.7119,-1.7118,-1.7105,-1.711,-1.7171,-1.7173,-1.7131,-1.7127,-1.7134,-1.718,-1.72,-1.7206,-1.7301,-1.7215,-1.722,-1.7223,-1.7225,-1.7476,-1.748,0,0,0,0,0,0,-1.7033,-1.7043,-1.7154,-1.7158,-1.7069,-1.711,-1.7116,-1.7145,-1.7172,-1.7173,-1.7137,-1.7132,-1.7192,-1.72,-1.7208,-1.7323,-1.7221,-1.7226,-1.7229,-1.7473,-1.7477,-1.7481,0,0,0,0,0,0,-1.703,-1.7044,-1.7152,-1.71,-1.7112,-1.7116,-1.7149,-1.7148,-1.7167,-1.7177,-1.7177,-1.7157,-1.719,-1.72,-1.7274,-1.7324,-1.7228,-1.7233,-1.7469,-1.7474,-1.7479,-1.7554,0,0,0,0,0,0,-1.7026,-1.7043,-1.708,-1.7101,-1.7115,-1.7218,-1.7152,-1.7151,-1.7176,-1.717,-1.7195,-1.7196,-1.7188,-1.7266,-1.7279,-1.7329,-1.7237,-1.7464,-1.7471,-1.7477,-1.7547,-1.7561,-1.7573,0,0,0,0,0,-1.7021,-1.7099,-1.7082,-1.7096,-1.7161,-1.7221,-1.7229,-1.7218,-1.7181,-1.7218,-1.7224,-1.7196,-1.7316,-1.7274,-1.7288,-1.7341,-1.7461,-1.7469,-1.7477,-1.7541,-1.7558,-1.7572,0,0,0,0,0,0,-1.7084,-1.7101,-1.7083,-1.717,-1.7194,-1.7212,-1.7258,-1.7236,-1.7272,-1.7265,-1.725,-1.7256,-1.7334,-1.7344,-1.7298,-1.7436,-1.7383,-1.7394,-1.7426,-1.7443,-1.7455,-1.7452,-1.7242,0,0,0,0,0,-1.7108,-1.7155,-1.7167,-1.7243,-1.7256,-1.7255,-1.728,-1.7269,-1.7294,-1.7305,-1.7316,-1.7341,-1.7385,-1.7414,-1.7454,-1.7547,-1.7552,-1.759,-1.7603,-1.7614,-1.7624,-1.7674,-1.7692,-1.7507,-1.7507,-1.7507,0,0,-1.7159,-1.7173,-1.7204,-1.7256,-1.7273,-1.7322,-1.7264,-1.7318,-1.7354,-1.7313,-1.7384,-1.7393,-1.742,-1.7504,-1.7541,-1.7515,-1.7676,-1.7624,-1.7632,-1.7637,-1.7684,-1.7702,-1.7717,-1.7512,-1.7511,-1.751,0,0,-1.7275,-1.7291,-1.7356,-1.7374,-1.7402,-1.74,-1.7416,-1.7437,-1.7441,-1.7511,-1.7481,-1.7524,-1.7599,-1.762,-1.764,-1.7763,-1.7739,-1.7777,-1.7845,-1.7894,-1.7909,-1.7922,-1.7967,-1.7983,-1.7786,-1.7787,-1.7787,0,-1.7335,-1.7407,-1.7392,-1.7449,-1.7472,-1.7436,-1.7501,-1.752,-1.756,-1.7577,-1.7546,-1.764,-1.7655,-1.7744,-1.7774,-1.7791,-1.7809,-1.7775,-1.7908,-1.7921,-1.7933,-1.7975,-1.7992,-1.7791,-1.7791,-1.779,-1.779,0,-1.7479,-1.753,-1.7579,-1.7617,-1.7646,-1.7707,-1.7701,-1.7732,-1.7718,-1.772,-1.7792,-1.7809,-1.7853,-1.7872,-1.786,-1.7959,-1.7942,-1.791,-1.7857,-1.7955,-1.7995,-1.8011,-1.7798,-1.7796,-1.7795,-1.7794,0,0,-1.764,-1.7668,-1.7686,-1.7703,-1.773,-1.7769,-1.7828,-1.787,-1.7897,-1.7925,-1.7974,-1.8038,-1.8008,-1.8031,-1.802,-1.8063,-1.8161,-1.8026,-1.8026,-1.8051,-1.8272,-1.8297,-1.8316,-1.8143,-1.8146,-1.8149,-1.827,0,-1.7758,-1.7861,-1.7848,-1.7946,-1.7993,-1.7958,-1.8009,-1.8031,-1.8034,-1.8074,-1.8077,-1.8123,-1.808,-1.8094,-1.8135,-1.814,-1.8205,-1.8131,-1.819,-1.8193,-1.8186,-1.8337,-1.8364,-1.8477,-1.8285,-1.8288,-1.829,0,-1.7911,-1.7944,-1.8047,-1.8066,-1.8085,-1.8132,-1.8169,-1.8207,-1.8231,-1.823,-1.8256,-1.8236,-1.8295,-1.8239,-1.8321,-1.8271,-1.8294,-1.83,-1.8304,-1.8311,-1.8249,-1.8349,-1.8513,-1.8531,-1.8314,-1.8312,-1.831,0,-1.802,-1.8089,-1.816,-1.8175,-1.8199,-1.8233,-1.8244,-1.8265,-1.8291,-1.8323,-1.834,-1.8378,-1.84,-1.8431,-1.8422,-1.8382,-1.8506,-1.8449,-1.8508,-1.8508,-1.8537,-1.8536,-1.8709,-1.8549,-1.8549,-1.8549,-1.8548,0,-1.8155,-1.8219,-1.8209,-1.8253,-1.8324,-1.8308,-1.8379,-1.8386,-1.8405,-1.8449,-1.842,-1.8463,-1.8449,-1.849,-1.8484,-1.8553,-1.8562,-1.8563,-1.8561,-1.8567,-1.8567,-1.8584,-1.8576,-1.8553,-1.8552,-1.8551,-1.855,0,-1.8289,-1.8284,-1.8359,-1.8375,-1.838,-1.8432,-1.8446,-1.8487,-1.8487,-1.8543,-1.8556,-1.8556,-1.8603,-1.8597,-1.865,-1.8646,-1.8732,-1.8719,-1.8724,-1.8722,-1.8781,-1.8776,-1.8972,-1.8998,-1.882,-1.8822,-1.8823,0,-1.8376,-1.8425,-1.8446,-1.8474,-1.8487,-1.8532,-1.8558,-1.8544,-1.8573,-1.8603,-1.864,-1.8685,-1.872,-1.8797,-1.8802,-1.8842,-1.8831,-1.8897,-1.8837,-1.8842,-1.8834,-1.8832,-1.8837,-1.891,-1.8912,-1.8913,-1.8915,0,-1.8533,-1.8528,-1.8566,-1.8604,-1.8636,-1.8665,-1.8692,-1.8716,-1.8704,-1.8738,-1.8785,-1.8813,-1.8866,-1.8911,-1.8948,-1.896,-1.8936,-1.8933,-1.8949,-1.8956,-1.8958,-1.8959,-1.8758,-1.8929,-1.8928,-1.8927,-1.8926,-1.8925,-1.8647,-1.8689,-1.871,-1.8754,-1.8772,-1.8797,-1.8837,-1.8841,-1.888,-1.8923,-1.8912,-1.8966,-1.8988,-1.9036,-1.9051,-1.9093,-1.9069,-1.9092,-1.9098,-1.9105,-1.9112,-1.8949,-1.91,-1.9099,-1.9099,-1.9099,-1.9098,0,-1.8803,-1.8814,-1.8855,-1.8892,-1.8927,-1.89,-1.8927,-1.8958,-1.9006,-1.9028,-1.9063,-1.9118,-1.9161,-1.9169,-1.921,-1.9242,-1.9232,-1.9253,-1.9252,-1.9255,-1.9131,-1.9114,-1.9261,-1.9261,-1.9261,-1.9261,-1.926,-1.926,-1.8888,-1.8958,-1.8955,-1.9033,-1.9044,-1.9097,-1.9115,-1.9138,-1.9156,-1.9218,-1.9254,-1.9258,-1.9274,-1.9316,-1.9354,-1.9355,-1.9372,-1.9398,-1.9395,-1.928,-1.9264,-1.9248,-1.9232,-1.9402,-1.9402,-1.9516,-1.9517,-1.9518]},{"header":{"parameterUnit":"m.s-1","parameterCategory":1,"la1":30.2991,"la2":30.254,"lo1":-89.0895,"lo2":-89.0444,"dy":0.0017,"dx":0.0017,"nx":28,"ny":28,"refTime":"2024-02-16T09:00:00:Z","depth":0,"parameterNumber":3,"parameterNumberName":"V-component_of_WINDS"},"data":[0,0,0,0,0,0,0,0,0,0,0,0,0,0,0,0,0,0,0,0,0,0,0,0,0,0,0,0,0,0,0,0,0,0,0,0,0,0,0,0,0,0,0,0,0,0,0,0,0,0,0,0,0,0,0,0,0,0,-7.315,-7.315,0,-7.3222,-7.3223,-7.3224,-7.3128,-7.3124,-7.3121,-7.3118,-7.3187,-7.3192,-7.3197,0,0,0,0,0,0,0,0,0,0,0,0,0,-7.2922,-7.2926,-7.315,-7.315,-7.3151,-7.3222,-7.3223,-7.3224,-7.3129,-7.3124,-7.312,-7.3116,-7.3185,-7.3191,-7.3197,0,0,0,0,0,0,0,0,0,0,0,0,0,-7.301,-7.2928,-7.3149,-7.3112,-7.311,-7.3222,-7.3223,-7.3225,-7.3129,-7.3124,-7.3119,-7.3114,-7.3183,-7.3191,-7.3198,-7.3349,0,0,-7.3221,-7.3225,0,0,0,0,0,0,0,0,-7.3005,-7.3019,-7.3117,-7.3115,-7.3112,-7.3161,-7.3168,-7.3266,-7.3131,-7.3122,-7.3118,-7.3112,-7.3182,-7.319,-7.3214,-7.3352,-7.3355,-7.3222,-7.3227,-7.323,-7.3232,0,0,0,0,0,0,0,-7.2999,-7.3015,-7.3178,-7.3118,-7.3116,-7.309,-7.3097,-7.3186,-7.318,-7.3122,-7.3115,-7.3126,-7.318,-7.3207,-7.3215,-7.3356,-7.3222,-7.3229,-7.3233,-7.3236,-7.362,-7.3626,0,0,0,0,0,0,-7.2998,-7.301,-7.3176,-7.318,-7.3045,-7.3098,-7.3106,-7.315,-7.3179,-7.3178,-7.313,-7.3121,-7.3197,-7.3207,-7.3217,-7.3395,-7.323,-7.3237,-7.3241,-7.3615,-7.3622,-7.3628,0,0,0,0,0,0,-7.2994,-7.3014,-7.3173,-7.3094,-7.3112,-7.3108,-7.3158,-7.3155,-7.3182,-7.3185,-7.3183,-7.316,-7.3193,-7.3207,-7.3317,-7.3396,-7.3241,-7.3247,-7.3608,-7.3617,-7.3625,-7.3753,0,0,0,0,0,0,-7.2988,-7.3013,-7.3072,-7.3096,-7.3117,-7.3274,-7.3163,-7.316,-7.3196,-7.3185,-7.3212,-7.3211,-7.319,-7.3306,-7.3325,-7.3404,-7.3253,-7.3601,-7.3612,-7.3622,-7.3741,-7.3765,-7.3784,0,0,0,0,0,-7.298,-7.3104,-7.3075,-7.3095,-7.319,-7.3278,-7.329,-7.3265,-7.3203,-7.3261,-7.3262,-7.3211,-7.3385,-7.3319,-7.3338,-7.3421,-7.3596,-7.3609,-7.3621,-7.3732,-7.376,-7.3784,0,0,0,0,0,0,-7.3087,-7.3106,-7.3075,-7.321,-7.3244,-7.3262,-7.3334,-7.3295,-7.3345,-7.3333,-7.3297,-7.3304,-7.3422,-7.3432,-7.3358,-7.3568,-7.348,-7.3497,-7.3557,-7.3584,-7.3605,-7.36,-7.326,0,0,0,0,0,-7.3127,-7.3199,-7.3211,-7.3329,-7.3348,-7.3339,-7.3376,-7.3354,-7.3386,-7.3399,-7.3409,-7.3441,-7.3502,-7.3544,-7.3601,-7.3743,-7.3746,-7.3809,-7.3831,-7.3848,-7.3863,-7.3938,-7.3966,-7.3669,-7.3669,-7.3669,0,0,-7.3208,-7.3228,-7.3275,-7.3351,-7.3374,-7.3448,-7.3351,-7.3433,-7.3486,-7.3411,-7.3516,-7.3525,-7.3557,-7.3685,-7.3741,-7.3697,-7.3946,-7.3864,-7.3878,-7.3884,-7.3954,-7.3982,-7.4007,-7.3678,-7.3676,-7.3675,0,0,-7.3396,-7.3418,-7.3519,-7.3545,-7.3582,-7.3575,-7.36,-7.3625,-7.3628,-7.3733,-7.3678,-7.374,-7.3848,-7.3873,-7.3901,-7.4098,-7.4052,-7.4117,-7.4229,-7.4303,-7.4326,-7.4347,-7.4417,-7.4442,-7.4133,-7.4133,-7.4133,0,-7.3492,-7.3603,-7.3576,-7.3662,-7.3697,-7.3634,-7.3735,-7.376,-7.3813,-7.3838,-7.3788,-7.3922,-7.3939,-7.4071,-7.4119,-7.4144,-7.4169,-7.4114,-7.4326,-7.4346,-7.4364,-7.4431,-7.4457,-7.4141,-7.414,-7.4139,-7.4138,0,-7.372,-7.3798,-7.3874,-7.393,-7.3973,-7.4066,-7.4051,-7.4097,-7.4072,-7.4069,-7.4177,-7.4196,-7.4256,-7.4286,-7.426,-7.4414,-7.4385,-7.4332,-7.4242,-7.4401,-7.4462,-7.4488,-7.4152,-7.4149,-7.4147,-7.4145,0,0,-7.3976,-7.4016,-7.4044,-7.4069,-7.4105,-7.4163,-7.4253,-7.4314,-7.4354,-7.4392,-7.4466,-7.4558,-7.4509,-7.454,-7.4517,-7.4581,-7.4736,-7.4519,-7.4519,-7.4558,-7.4905,-7.4945,-7.4975,-7.4706,-7.471,-7.4714,-7.4902,0,-7.4163,-7.4321,-7.4299,-7.445,-7.452,-7.4461,-7.4539,-7.4569,-7.457,-7.4628,-7.4627,-7.4693,-7.4623,-7.4641,-7.4703,-7.4704,-7.4805,-7.469,-7.4772,-7.4775,-7.4765,-7.5007,-7.505,-7.5227,-7.4926,-7.493,-7.4933,0,-7.4402,-7.4452,-7.4611,-7.4636,-7.4665,-7.4736,-7.4789,-7.4846,-7.4878,-7.4874,-7.4909,-7.4874,-7.4962,-7.4872,-7.4992,-7.4914,-7.4946,-7.4952,-7.4958,-7.4964,-7.4863,-7.5019,-7.5282,-7.5309,-7.4971,-7.4968,-7.4965,0,-7.4573,-7.4679,-7.4788,-7.481,-7.4843,-7.4894,-7.4909,-7.4936,-7.4974,-7.502,-7.5044,-7.5099,-7.5129,-7.5171,-7.5151,-7.5088,-7.5275,-7.5183,-7.5272,-7.5273,-7.5313,-7.5311,-7.5585,-7.5336,-7.5335,-7.5335,-7.5334,0,-7.4784,-7.4883,-7.4865,-7.4932,-7.504,-7.5013,-7.5121,-7.5129,-7.5154,-7.522,-7.5171,-7.5234,-7.5204,-7.5264,-7.5249,-7.535,-7.5364,-7.5361,-7.5356,-7.5366,-7.5366,-7.5385,-7.5372,-7.5342,-7.534,-7.5339,-7.5337,0,-7.4992,-7.4984,-7.5099,-7.5121,-7.5129,-7.5208,-7.5226,-7.5287,-7.5284,-7.5368,-7.5386,-7.5381,-7.5448,-7.5433,-7.5507,-7.5497,-7.5624,-7.5603,-7.5614,-7.5609,-7.5699,-7.569,-7.5994,-7.6032,-7.5759,-7.5762,-7.5764,0,-7.5127,-7.5202,-7.5233,-7.5275,-7.5295,-7.5363,-7.5401,-7.5377,-7.5419,-7.5461,-7.5517,-7.5581,-7.5631,-7.5742,-7.5743,-7.5799,-7.5779,-7.5882,-7.5787,-7.5795,-7.578,-7.5776,-7.5783,-7.5901,-7.5904,-7.5906,-7.5908,0,-7.5367,-7.536,-7.5419,-7.5477,-7.5525,-7.5568,-7.5607,-7.5643,-7.5622,-7.5671,-7.5741,-7.578,-7.5856,-7.592,-7.5972,-7.5985,-7.5943,-7.5939,-7.5962,-7.5972,-7.5975,-7.5974,-7.5664,-7.5931,-7.5929,-7.5927,-7.5926,-7.5925,-7.5543,-7.5607,-7.5639,-7.5706,-7.5733,-7.577,-7.5829,-7.5834,-7.5893,-7.5955,-7.5936,-7.6015,-7.6044,-7.611,-7.613,-7.619,-7.6151,-7.6185,-7.6194,-7.6203,-7.6214,-7.5966,-7.6199,-7.6199,-7.6198,-7.6198,-7.6197,0,-7.578,-7.5798,-7.586,-7.5917,-7.5969,-7.5927,-7.5968,-7.6014,-7.6085,-7.6116,-7.6167,-7.6247,-7.6308,-7.6315,-7.6373,-7.642,-7.6402,-7.6436,-7.6431,-7.6435,-7.6245,-7.6219,-7.6449,-7.6449,-7.6449,-7.6449,-7.6449,-7.6449,-7.5909,-7.6016,-7.6012,-7.613,-7.6147,-7.6226,-7.6253,-7.6286,-7.6312,-7.6404,-7.6456,-7.646,-7.6481,-7.654,-7.6594,-7.6594,-7.6617,-7.6658,-7.6651,-7.6474,-7.6448,-7.6424,-7.64,-7.6664,-7.6664,-7.6835,-7.6837,-7.6838]}]]